Starlink 36605

operational
NORAD ID: 67604 Int'l Des: 2026-018 Owner: SPXS Country: US Constellation: starlink
NOTLE

About Starlink 36605

Description loading...

Live Position

Loading 3D Globe...

Upcoming Passes

Altitude History

Altitude vs Time

uPlot chart will show altitude changes over time

Two-Line Element Set

1 67604U 26018R 26047.58335648 -.00148149 00000-0 -10061-2 0 9990
2 67604 97.2843 112.3351 0001075 88.2458 299.6692 15.75273637 3958
Epoch: Feb 16, 2026 • Age: 10 hours

Current Status

Altitude 373.3 km
Velocity 7.68 km/s
Sub-Earth Point -82.74°S, 48.85°E
Launch Date Jan 29, 2026
Age 18 days
Type internet

Technical Details

Classification Payload
Mass 575.00 kg
Dry Mass 530.00 kg
Total Mass 575.00 kg
Length 0.30 m
Diameter 4.10 m
Span 29.00 m
Shape Box + pan
Manufacturer SPXS
Bus Type Starlink V2MO
Phase Status In Orbit
Owner/State SPXS/US

Large Constellations

Loading constellations...